TimeEDT,TemperatureF,Dew PointF,Humidity,Sea Level PressureIn,VisibilityMPH,Wind Direction,Wind SpeedMPH,Gust SpeedMPH,PrecipitationIn,Events,Conditions,WindDirDegrees,DateUTC
12:53 AM,33.1,21.9,64,29.94,10.0,WSW,6.9,-,N/A,,Mostly Cloudy,240,2013-03-26 04:53:00
1:53 AM,32.0,21.9,66,29.94,10.0,WSW,9.2,-,N/A,,Clear,240,2013-03-26 05:53:00
2:53 AM,30.9,21.9,69,29.94,10.0,West,9.2,-,N/A,,Clear,260,2013-03-26 06:53:00
3:53 AM,30.0,21.9,72,29.93,10.0,WSW,5.8,-,N/A,,Clear,250,2013-03-26 07:53:00
4:53 AM,28.9,21.9,75,29.93,10.0,West,6.9,-,N/A,,Clear,260,2013-03-26 08:53:00
5:53 AM,28.0,21.0,75,29.93,10.0,West,5.8,-,N/A,,Clear,280,2013-03-26 09:53:00
6:53 AM,28.0,21.9,78,29.94,10.0,SW,5.8,-,N/A,,Clear,230,2013-03-26 10:53:00
7:53 AM,28.0,21.9,78,29.97,10.0,WSW,3.5,-,N/A,,Clear,250,2013-03-26 11:53:00
8:53 AM,34.0,25.0,70,29.99,10.0,West,5.8,-,N/A,,Clear,260,2013-03-26 12:53:00
9:53 AM,39.0,21.9,50,30.01,10.0,Calm,Calm,-,N/A,,Clear,0,2013-03-26 13:53:00
10:53 AM,42.1,21.9,45,30.01,10.0,NW,8.1,18.4,N/A,,Scattered Clouds,320,2013-03-26 14:53:00
11:53 AM,46.0,23.0,40,30.03,10.0,WNW,12.7,18.4,N/A,,Mostly Cloudy,290,2013-03-26 15:53:00
12:53 PM,46.0,21.0,37,30.03,10.0,WNW,11.5,24.2,N/A,,Overcast,300,2013-03-26 16:53:00
1:53 PM,46.0,19.9,35,30.03,10.0,North,10.4,20.7,N/A,,Scattered Clouds,360,2013-03-26 17:53:00
2:53 PM,46.9,21.9,37,30.04,10.0,NNW,9.2,21.9,N/A,,Mostly Cloudy,340,2013-03-26 18:53:00
3:53 PM,48.9,21.0,33,30.04,10.0,NNW,5.8,20.7,N/A,,Mostly Cloudy,340,2013-03-26 19:53:00
4:53 PM,46.0,21.9,39,30.05,10.0,NNW,15.0,23.0,N/A,,Mostly Cloudy,340,2013-03-26 20:53:00
5:53 PM,46.9,21.9,37,30.06,10.0,North,15.0,21.9,N/A,,Clear,350,2013-03-26 21:53:00
6:53 PM,43.0,21.0,42,30.10,10.0,North,11.5,20.7,N/A,,Clear,360,2013-03-26 22:53:00
7:53 PM,39.9,23.0,51,30.13,10.0,North,15.0,20.7,N/A,,Clear,350,2013-03-26 23:53:00
8:53 PM,39.0,23.0,53,30.15,10.0,North,10.4,23.0,N/A,,Mostly Cloudy,350,2013-03-27 00:53:00
9:53 PM,37.9,23.0,55,30.17,10.0,North,10.4,20.7,N/A,,Mostly Cloudy,360,2013-03-27 01:53:00
10:53 PM,37.0,23.0,57,30.19,10.0,North,9.2,-,N/A,,Clear,360,2013-03-27 02:53:00
11:53 PM,36.0,24.1,62,30.19,10.0,North,10.4,-,N/A,,Clear,360,2013-03-27 03:53:00